This is the latest recevied weather packets stored in our database for station/object W4NDF-13. If no packets are shown the sender has not sent any weather packets the latest 10 day(s).
| Time | Temp. | Humidity | Pressure | Rain* | Wind** | Luminosity | Snow |
|---|---|---|---|---|---|---|---|
| 1778020496 | 26.11° C | 74% | 1012.7 hPa | 0 mm | - | 152 W/m² | - |
| 1778020192 | 26.11° C | 74% | 1012.6 hPa | 0 mm | - | 121 W/m² | - |
| 1778019889 | 26.67° C | 72% | 1012.5 hPa | 0 mm | - | 128 W/m² | - |
| 1778019584 | 26.67° C | 71% | 1012.5 hPa | 0 mm | - | 127 W/m² | - |
| 1778019282 | 27.22° C | 71% | 1012.4 hPa | 0 mm | - | 193 W/m² | - |
| 1778018979 | 27.22° C | 70% | 1012.1 hPa | 0 mm | - | 343 W/m² | - |
| 1778018676 | 26.67° C | 72% | 1011.9 hPa | 0 mm | - | 316 W/m² | - |
| 1778018373 | 27.22° C | 71% | 1012.1 hPa | 0 mm | - | 337 W/m² | - |
| 1778018071 | 27.22° C | 72% | 1012.3 hPa | 0 mm | - | 385 W/m² | - |
| 1778017769 | 26.67° C | 72% | 1012.3 hPa | 0 mm | - | 452 W/m² | - |
| 1778017467 | 26.67° C | 72% | 1012.3 hPa | 0 mm | - | 457 W/m² | - |
| 1778017164 | 26.67° C | 71% | 1012.3 hPa | 0 mm | - | 260 W/m² | - |
| 1778016861 | 26.67° C | 72% | 1012.5 hPa | 0 mm | - | 301 W/m² | - |
| 1778016557 | 26.67° C | 72% | 1012.2 hPa | 0 mm | - | 219 W/m² | - |
| 1778016254 | 26.67° C | 72% | 1012.3 hPa | 0 mm | - | 168 W/m² | - |
| 1778015951 | 26.67° C | 72% | 1012.3 hPa | 0 mm | - | 264 W/m² | - |
| 1778015649 | 26.67° C | 73% | 1012.3 hPa | 0 mm | - | 258 W/m² | - |
| 1778015344 | 26.67° C | 72% | 1012.4 hPa | 0 mm | - | 164 W/m² | - |
| 1778015042 | 26.67° C | 71% | 1012.8 hPa | 0 mm | - | 194 W/m² | - |
| 1778014738 | 27.22° C | 70% | 1012.7 hPa | 0 mm | - | 218 W/m² | - |
| 1778014437 | 27.22° C | 69% | 1012.8 hPa | 0 mm | - | 255 W/m² | - |
| 1778014133 | 27.22° C | 70% | 1012.6 hPa | 0 mm | - | 295 W/m² | - |
| 1778013831 | 27.22° C | 70% | 1012.7 hPa | 0 mm | - | 337 W/m² | - |
| 1778013528 | 27.78° C | 69% | 1012.4 hPa | 0 mm | - | 322 W/m² | - |
| 1778013224 | 27.78° C | 68% | 1012.3 hPa | 0 mm | - | 604 W/m² | - |
* Rain latest hour (hover to see other rain measurements)
** Current wind speed in m/s (hover to see current wind gust speed)